Location: Petrozavodsk
(61.7955°N, 34.3748°E)
Time: 01:32:55
(UTC+03:00)

Envisat - Pass Details

Date: 27 March 2023
Orbit: 763 x 765 km, 98.2° (Epoch: 28 May)

Event Time Altitude Azimuth Distance (km) Brightness Sun altitude
Rises 04:32:08 0° 18° (NNE) 3,250 7.1 -13.1°
Reaches altitude 10° 04:34:32 10° 24° (NNE) 2,319 6.4 -12.8°
Maximum altitude 04:39:29 48° 99° (E) 999 4.0 -12.3°
Drops below altitude 10° 04:44:24 10° 174° (S) 2,303 5.3 -11.8°
Sets 04:46:46 0° 180° (S) 3,225 6.0 -11.6°
